Lubbock Preston Smith International Airport Lubbock US
ICAO: KLBB
IATA: LBB
Category: Large
Scheduled Services: Yes

Elevation: 3282 ft
TransAlt. 18000 ft.

Airport Communications:
APP:119.2
ATIS:125.3
CLNC DEL:125.8
DEP:119.2
GND:121.9
FORT WORTH RDO:122.55
TWR:120.5
UNICOM:122.95

KLBB Zoom In..

If you have problems with the map follow the link
https://www.worldairports.se/pages/airport.php?
ICAO=KLBB

Runways:

(A) RW 08 length 8003 ft width 150 ft
---- / hdg 81

(B) RW 17L length 2891 ft width 75 ft
---- / hdg 171

(C) RW 17R length 11500 ft width 150 ft
ILS 111.70 / hdg 171

(D) RW 26 length 8003 ft width 150 ft
ILS 111.90 / hdg 261

(E) RW 35L length 11500 ft width 150 ft
---- / hdg 351

(F) RW 35R length 2891 ft width 75 ft
---- / hdg 351

Location; KLBB
Day. 16 / Time. 02.53 Zulu
* Altimeter: 29.82
* Temperature: 22° c. 71.6°f.
* Wind from: 040° Speed 15 kn.
Dewpoint: 11° c.
Visibility: 10 Statute Miles.
Clouds: Few 5000 ft.
Clouds: Few 15000 ft.
Clouds: Scattered 26000 ft.
Clouds: Scattered 3000 ft.
Conditions: Cumulonimbus.

KLBB 160253Z 04015KT 10SM FEW050 FEW150 SCT260 SCT300 22/11 A2982 RMK AO2 RAB08E19 SLP047 FRQ LTGICCG DSNT E-SE CB DSNT E-SE MOV E P0000 60000 T02220106 51008


Wind From 040°
Speed 15 kn.

 
 
jpsmedia.com for Web Design worldairports.se 2019   terms of use